Oklahoma City, OK

6:26 AM CST on January 24, 2017 (GMT -0600)
Tinker Air Force Base

Weather History for KTIK - October, 2012

Change the Weather History Date:

Tuesday, October 2, 2012

  Actual Average Record
Temperature  
Mean Temperature 64 °F -  
Max Temperature 74 °F 73 °F 91 °F (1997)
Min Temperature 55 °F 55 °F 44 °F (2004)
Growing Degree Days 14 (Base 50)    
Moisture  
Dew Point 47 °F    
Average Humidity 55    
Maximum Humidity 78    
Minimum Humidity 34    
Precipitation  
Precipitation 0.00 in - - ()
Sea Level Pressure  
Sea Level Pressure 29.94 in    
Wind  
Wind Speed 8 mph (NW)    
Max Wind Speed 13 mph    
Max Gust Speed -    
Visibility 10 miles    
Events      
Averages and records for this station are not official NWS values.
T = Trace of Precipitation, MM = Missing Value Source: NWS Daily Summary

Daily Weather History Graph

Daily Weather History Graph

Search for Another Location

Airport or City:

Trip Planner

Search our weather history database for the weather conditions in past years. The results will help you decide how hot, cold, wet, or windy it might be!

Date:

Astronomy

Oct. 02, 2012 Rise Set
Actual Time 7:25 AM CDT 7:11 PM CDT
Civil Twilight 7:00 AM CDT 7:36 PM CDT
Nautical Twilight 6:30 AM CDT 8:06 PM CDT
Astronomical Twilight 6:01 AM CDT 8:35 PM CDT
Moon 8:32 PM CDT (10/2) 9:46 AM CDT (10/2)
Length of Visible Light 12h 36m
Length of Day
11h 45m
Waning Gibbous, 94% of the Moon is Illuminated
Oct 2
Waning Gibbous
Oct 8
Last Quarter
Oct 15
New
Oct 21
First Quarter
Oct 29
Full

Hourly Weather History & Observations

Time (CDT) Temp. Dew Point Humidity Pressure Visibility Wind Dir Wind Speed Gust Speed Precip Events Conditions
12:55 AM 62.1 °F 51.1 °F 67% 29.93 in 10.0 mi North 10.4 mph - N/A   Mostly Cloudy
1:08 AM 62.6 °F 51.8 °F 68% 29.93 in 10.0 mi NNW 11.5 mph - N/A   Light Drizzle
1:20 AM 60.8 °F 51.8 °F 72% 29.93 in 10.0 mi NNW 8.1 mph - N/A   Scattered Clouds
1:55 AM 60.8 °F 52.0 °F 73% 29.93 in 10.0 mi NW 8.1 mph - 0.00 in   Mostly Cloudy
2:55 AM 58.5 °F 50.4 °F 74% 29.93 in 10.0 mi NW 11.5 mph - N/A   Clear
3:55 AM 58.1 °F 49.3 °F 72% 29.93 in 10.0 mi NNW 11.5 mph - N/A   Clear
4:55 AM 57.4 °F 48.9 °F 73% 29.94 in 10.0 mi NW 10.4 mph - N/A   Clear
5:55 AM 57.0 °F 48.9 °F 74% 29.95 in 10.0 mi NNW 10.4 mph - N/A   Clear
6:55 AM 55.9 °F 49.1 °F 78% 29.97 in 10.0 mi NNW 9.2 mph - N/A   Clear
7:55 AM 55.8 °F 48.9 °F 78% 29.98 in 10.0 mi NNW 9.2 mph - N/A   Clear
8:55 AM 58.5 °F 48.9 °F 71% 29.99 in 10.0 mi NW 12.7 mph - N/A   Clear
9:55 AM 61.3 °F 48.6 °F 63% 30.01 in 10.0 mi NW 11.5 mph - N/A   Clear
10:55 AM 64.9 °F 48.4 °F 55% 30.01 in 10.0 mi NW 10.4 mph - N/A   Clear
11:55 AM 68.5 °F 48.6 °F 49% 30.00 in 10.0 mi NNW 9.2 mph - N/A   Clear
12:55 PM 71.6 °F 46.2 °F 40% 29.99 in 10.0 mi NNW 9.2 mph - N/A   Clear
1:55 PM 72.7 °F 45.9 °F 38% 29.96 in 10.0 mi Variable 6.9 mph - N/A   Clear
2:55 PM 73.9 °F 44.8 °F 35% 29.94 in 10.0 mi NW 11.5 mph - N/A   Clear
3:55 PM 73.8 °F 44.2 °F 35% 29.92 in 10.0 mi West 4.6 mph - N/A   Clear
4:55 PM 74.3 °F 44.6 °F 35% 29.91 in 10.0 mi WSW 4.6 mph - N/A   Clear
5:55 PM 73.6 °F 43.9 °F 34% 29.91 in 10.0 mi Calm Calm - N/A   Clear
6:32 PM 73.4 °F 44.6 °F 36% 29.91 in 10.0 mi Calm Calm - N/A   Light Drizzle
6:40 PM 71.6 °F 44.6 °F 38% 29.91 in 10.0 mi Calm Calm - N/A   Clear
6:55 PM 72.1 °F 44.1 °F 36% 29.91 in 10.0 mi Calm Calm - 0.00 in   Clear
7:55 PM 67.1 °F 45.9 °F 46% 29.91 in 10.0 mi Calm Calm - N/A   Clear
8:55 PM 67.3 °F 44.8 °F 44% 29.92 in 9.0 mi Calm Calm - N/A   Clear
9:55 PM 66.2 °F 44.6 °F 46% 29.93 in 10.0 mi Calm Calm - N/A   Clear
10:55 PM 61.3 °F 47.1 °F 60% 29.94 in 10.0 mi Calm Calm - N/A   Clear
11:55 PM 59.7 °F 47.1 °F 63% 29.94 in 10.0 mi Calm Calm - N/A   Clear